STARLINK-32295, 62147

Orbit data source: Space-Track

STARLINK-32295, 62147 is a payload satellite owned by SpaceX/Seattle (US) in LEO that was launched on Sat, 30 Nov 2024 UTC via an FALCON 9 launch vehicle from the Air Force Eastern Test Range (AFETR). Payload-class satellites include a variety of spacecraft equipped with specific instruments for various scientific and technological missions. These include communications satellites like Starlink; space stations such as the ISS; scientific satellites like the Hubble; Earth observation satellites from companies like Planet Labs, Umbra, and HawkEye 360; GPS; miniature CubeSats for education and research; and military/defense satellites.

Loading next visibility...
Identifier
62147, 2024-224J
Orbit
LEO
Country
Flag of USUS
Related business
Manufacturer
SpaceX/Seattle
Mission
Operational Commercial Communications
Bus & Motor
STARLINK V2M, Unknown motor
Mass
730 kg wet, ~700 kg dry
Launch date (UTC)
2024-11-30 (1 year ago)
Launch vehicle
FALCON 9
Launch site
Air Force Eastern Test Range (AFETR)
Object type
Payload
Rocket body
Debris
Shape & HBR
Box + 2 Pan, 17.7 m
Radar Cross Section
33.884 m², Large (>1 m²)

Expand to show TLE details & history
Last TLE update: 20 hours ago

TLE from 20 hours ago
0 STARLINK-32295
1 62147U 24224J   25348.86068719  .00015668  00000-0  57777-3 0  9993
2 62147  42.9993 277.4260 0001150 301.2209  58.8530 15.27573633 59397
Epoch: 2025-12-14T20:39Z
TLE epoch observation values (Epoch: 2025-12-14T20:39:23.373Z)
Latitude
Longitude
-116.18892°
Altitude
482.435 km
Speed
7.626 km/s
True Right ascension
18h 29m 42s
True Declination
0° 00' 00"
Sunlit
Object was in daylight at epoch
Visualization orbit readout
Latitude
Unknown
Longitude
Unknown
Altitude
Unknown
Speed
Unknown
Apparent Right ascension
Unknown
Apparent Declination
Unknown
Sunlit
N/A
Visualization observer readout
Local Sidereal Time
15:11:08
Azimuth
Unknown
Elevation
Unknown
Doppler factor
Unknown
Orbital elements
Apogee altitude
485.803 km
Perigee altitude
484.224 km
Semi-major axis
6,863.15 km
Eccentricity
0.00012
Inclination
42.9993°
RAAN
277.426°
Arg. of periapsis
301.2209°
True anomaly
58.86428°
Mean anomaly
58.853°
Eccentric anomaly
58.85864°
Mean motion
3.81731 °/min
Orbital period
94.31 mins
BSTAR
0.00057777
Loading maneuver chart data...
Computing Atmospheric mass density...
Loading historical data...
Loading historical data...
Loading historical data...
Loading historical data...
Loading historical data...
Loading historical data...
Loading historical data...

Documentation

Showing up to 5 results
|